Home   Weather   Arnsberg   Past weeks

Flag for Germany Past Weather in Arnsberg, North Rhine-Westphalia, Germany — Yesterday and Last 2 Weeks

Now
59 °F

Light rain. Fog.


Feels Like: 58 °F
Forecast: 55 / 69 °F
Wind: 8 mph from Northwest

Location: Dortmund / Wickede

Current Time: Jul 25, 2017 at 8:56:51 pm

Latest Report: Jul 25, 2017 at 8:20 pm


Visibility: 2 mi

Pressure: 29.71 "Hg

Humidity: 88%

Dew Point: 55 °F

Location of ArnsbergLocation

Past Weather in Arnsberg — Graph

°F

Arnsberg Temperature Yesterday

Maximum temperature yesterday: 61 °F (at 1:20 pm)
Minimum temperature yesterday: 39 °F (at 11:50 am)
Average temperature yesterday: 57 °F

High & Low Weather Summary for the Past Weeks

 TemperatureHumidityPressure
High90 °F (Jul 19, 2:50 pm)100% (Jul 24, 11:50 am)30.21 "Hg (Jul 24, 11:50 am)
Low39 °F (Jul 24, 11:50 am)29% (Jul 19, 2:50 pm)29.68 "Hg (Jul 12, 1:20 pm)
Average65 °F66%29.96 "Hg
* Reported Jul 10 7:20 pm — Jul 25 7:20 pm, Arnsberg. Weather by CustomWeather, © 2017

Note: Actual official high and low records may vary slightly from our data, if they occured in-between our weather recording intervals... More about our weather records

Advertising

Arnsberg Weather History for the Previous 24 Hours

Scroll right to see more
 ConditionsComfort  
Time TempWeatherWind HumidityBarometerVisibility
7:20 pm
Tue, Jul 25
59 °FLight rain. Partly sunny.9 mph88%29.71 "HgN/A
6:50 pm59 °FLight rain. Partly sunny.7 mph88%29.68 "Hg5 mi
6:20 pm59 °FLight rain. Partly sunny.9 mph88%29.71 "Hg4 mi
5:50 pm59 °FLight rain. Partly sunny.9 mph88%29.71 "Hg5 mi
5:20 pm61 °FLight rain. Partly sunny.10 mph88%29.71 "Hg5 mi
4:50 pm59 °FLight rain. Partly sunny.9 mph88%29.71 "Hg5 mi
4:20 pm61 °FLight rain. Partly sunny.8 mph83%29.74 "HgN/A
3:50 pm59 °FLight rain. Partly sunny.7 mph88%29.74 "HgN/A
3:20 pm61 °FLight rain. Partly sunny.7 mph88%29.74 "Hg5 mi
2:50 pm59 °FLight rain. Partly sunny.7 mph88%29.74 "HgN/A
2:20 pm59 °FLight rain. Partly sunny.7 mph88%29.74 "Hg5 mi
1:50 pm57 °FLight rain. Partly sunny.8 mph94%29.74 "Hg4 mi
1:20 pm59 °FLight rain. Partly sunny.5 mph88%29.74 "Hg4 mi
12:50 pm59 °FLight rain. Partly sunny.6 mph88%29.77 "Hg4 mi
12:20 pm59 °FLight rain. Partly sunny.6 mph82%29.77 "HgN/A
11:50 am59 °FPartly sunny.6 mph88%29.77 "HgN/A
11:20 am57 °FPartly sunny.5 mph88%29.77 "HgN/A
10:50 am57 °FLight rain. Partly sunny.6 mph88%29.77 "Hg6 mi
10:20 am55 °FLight rain. Partly sunny.6 mph88%29.80 "Hg6 mi
9:20 am57 °FLight rain. Partly sunny.6 mph88%29.77 "Hg5 mi
8:50 am57 °FLight rain. Partly sunny.5 mph88%29.77 "Hg4 mi
8:20 am55 °FLight rain. Fog.6 mph94%29.77 "Hg3 mi
7:50 am55 °FLight rain. Partly sunny.6 mph88%29.77 "Hg4 mi
7:20 am55 °FLight rain. Partly sunny.6 mph88%29.77 "Hg3 mi
6:50 am55 °FLight rain. Partly sunny.6 mph88%29.80 "Hg4 mi
6:20 am55 °FLight rain. Broken clouds.6 mph88%29.80 "Hg4 mi
5:50 am55 °FLight rain. Broken clouds.7 mph88%29.80 "Hg4 mi
5:20 am55 °FLight rain. Partly cloudy.5 mph88%29.80 "HgN/A
9:50 pm
Mon, Jul 24
55 °FPassing clouds.2 mph88%29.83 "HgN/A
9:20 pm55 °FPartly sunny.No wind88%29.80 "HgN/A
8:50 pm55 °FPartly sunny.2 mph88%29.80 "HgN/A
8:20 pm55 °FSprinkles. Broken clouds.3 mph88%29.80 "HgN/A
Weather by CustomWeather, © 2017

See weather overviewHow to use our weather pages